[Iaude] MPEC V241: 2023 VP8 [a=1.53,e=0.40,i=18.8,H=26.0]

mpec at marsden.cfa.harvard.edu mpec at marsden.cfa.harvard.edu
Tue Nov 14 03:19:12 EST 2023


M.P.E.C. 2023-V241                            Issued 2023 November 14, 08:17 UT

     The Minor Planet Electronic Circulars contain information on unusual
         minor planets, routine data on comets and natural satellites,
         and occasional editorial announcements.  They are published
    on behalf of Division F of the International Astronomical Union by the
          Minor Planet Center, Smithsonian Astrophysical Observatory,
                          Cambridge, MA 02138, U.S.A.
			  
             Prepared using the Tamkin Foundation Computer Network

                              MPC at CFA.HARVARD.EDU
            URL https://www.minorplanetcenter.net/    ISSN 1523-6714

                                    2023 VP8                                    


Observations:
     K23V08P* C2023 11 11.43775404 44 26.358+58 19 17.26         21.44GVEV241V00
     K23V08P  C2023 11 11.44388804 44 18.121+58 20 23.35         20.60GVEV241V00
     K23V08P  C2023 11 11.45003704 44 09.881+58 21 29.30         20.22GVEV241V00
     K23V08P  C2023 11 11.45615204 44 01.698+58 22 34.50         20.30GVEV241V00
     K23V08P KC2023 11 11.50696 04 42 54.75 +58 31 23.7          20.7 RVEV241291
     K23V08P KC2023 11 11.50887 04 42 52.27 +58 31 43.0          20.7 RVEV241291
     K23V08P KC2023 11 11.51294804 42 46.937+58 32 21.98         21.24GVEV241I52
     K23V08P KC2023 11 11.51381604 42 45.832+58 32 30.66         21.13GVEV241I52
     K23V08P KC2023 11 11.51467604 42 44.690+58 32 39.44         21.07GVEV241I52
     K23V08P 1C2023 11 11.94918 04 34 43.63 +59 44 54.0          20.9 VXEV241033
     K23V08P 1C2023 11 11.95045 04 34 42.07 +59 45 06.4          20.9 VXEV241033
     K23V08P 1C2023 11 11.95173 04 34 40.52 +59 45 18.2          20.5 VXEV241033
     K23V08P 1C2023 11 11.95300 04 34 38.98 +59 45 30.2          21.0 VXEV241033
     K23V08P KC2023 11 12.21888404 29 55.610+60 24 20.90               VEV241I52
     K23V08P KC2023 11 12.22545704 29 48.000+60 25 20.30         20.89GVEV241I52
     K23V08P KC2023 11 12.22874804 29 44.190+60 25 49.80         22.06GVEV241I52
     K23V08P 1C2023 11 14.12273 03 59 56.78 +63 33 07.6          21.3 VXEV241033
     K23V08P 1C2023 11 14.12504 03 59 54.82 +63 33 16.8          21.2 VXEV241033
     K23V08P 1C2023 11 14.12735 03 59 52.83 +63 33 25.4          20.9 VXEV241033
     K23V08P 1C2023 11 14.12966 03 59 50.85 +63 33 33.8          20.7 VXEV241033

Observer details:
033 Karl Schwarzschild Observatory, Tautenburg.  Observers S. Melnikov, C.
    Hogner, F. Ludwig, M. Hartmann, B. Stecklum.  Measurer B. Stecklum.
    1.34-m f/3 Schmidt + CCD.
291 LPL/Spacewatch II.  Observer C. Lejoly.  1.8-m f/2.7 reflector + CCD.
I52 Steward Observatory, Mt. Lemmon Station.  Observer J. K. Hogan.  Measurers
    E. C. Beshore, D. Fay, J. B. Fazekas, D. C. Fuls, A. R. Gibbs, A. D.
    Grauer, H. Groeller, J. K. Hogan, R. A. Kowalski, S. M. Larson, G. J.
    Leonard, D. Rankin, R. L. Seaman, F. C. Shelly, K. W. Wierzchos.  1.0-m
    prime focus + CCD.
V00 Kitt Peak-Bok.  Observer K. W. Wierzchos.  Measurers M. J. Brucker, C. E.
    Woodward, D. Fay, J. B. Fazekas, D. C. Fuls, A. R. Gibbs, H. Groeller, J.
    K. Hogan, R. A. Kowalski, S. M. Larson, C. Lejoly, G. J. Leonard, R. A.
    Mastaler, R. S. McMillan, D. Rankin, R. L. Seaman, A. Serrano, F. C.
    Shelly, K. W. Wierzchos.  2.25-m reflector + 4x4K mosaic CCD.

Orbital elements:
2023 VP8                                                 Earth MOID = 0.0089 AU
Epoch 2023 Sept. 13.0 TT = JDT 2460200.5                MPC                     
M 350.34969              (2000.0)            P               Q                  
n   0.52242061     Peri.  313.50390     +0.97220870     +0.04610732             
a   1.5268247      Node    45.35475     +0.09980927     +0.80522661             
e   0.4020750      Incl.   18.82109     -0.21177429     +0.59117190             
P   1.89           H   26.06          G   0.15           U   8                  
Residuals in seconds of arc
231111 V00  0.2-  0.2+    231111 I52  0.0   0.0     231112 I52  0.2+  0.3+
231111 V00  0.0   0.0     231111 I52  0.2-  0.1+    231112 I52  0.5+  0.7+
231111 V00  0.1+  0.1-    231111 033  0.1+  0.1+    231114 033  0.0   0.0
231111 V00  0.1+  0.2-    231111 033  0.0   0.5+    231114 033  0.1+  0.4+
231111 291  0.3-  0.2-    231111 033  0.0   0.2+    231114 033  0.0   0.1+
231111 291  0.3-  0.3-    231111 033  0.1+  0.2+    231114 033  0.1-  0.3-
231111 I52  0.1-  0.1+    231112 I52  0.4-  0.7-

Ephemeris:
2023 VP8                 a,e,i = 1.53, 0.40, 19                  q = 0.9129
Date    TT    R. A. (2000) Decl.     Delta      r    Elong.  Phase     V
2023 10 15    12 41 51.9 -68 46 06   0.1722  0.9258    60.8   109.8    26.2
...
2023 10 30    10 43 53.5 -66 26 07   0.05955 0.9679    63.3   113.6    24.3
...
2023 11 07    06 48 36.6 +12 04 22   0.01710 1.0002   121.2    57.9    19.3
...
2023 11 13    04 16 28.5 +61 56 55   0.05356 1.0279   134.3    43.6    21.4
2023 11 14    04 01 46.5 +63 24 11   0.06100 1.0328   133.9    43.7    21.7
2023 11 15    03 49 11.6 +64 26 46   0.06852 1.0377   133.5    43.7    22.0
...
2023 11 21    03 02 44.1 +66 53 24   0.1146  1.0686   132.4    43.1    23.2
...
2023 11 29    02 38 58.7 +66 57 43   0.1774  1.1126   131.8    41.4    24.2
...
2023 12 14    02 36 22.8 +64 57 19   0.2999  1.2006   130.4    38.7    25.4

A. U. Tomatic                (C) Copyright 2023 MPC           M.P.E.C. 2023-V241




More information about the Iaude mailing list